Miscellaneous Local Product
Issued by NWS North Platte, NE

Home | Current Version | Previous Version | Text Only | Print | Product List | Glossary On
Versions: 1 2 3 4 5 6 7 8 9 10 11 12 13 14 15 16 17 18 19 20 21 22 23 24 25 26 27 28 29 30 31 32 33 34 35 36 37 38 39 40 41 42 43 44 45 46 47 48 49 50
000
AXUS43 KLBF 271810
MISLBF


WESTERN AND NORTH CENTRAL NEBRASKA HOURLY WEATHER ROUNDUP
NATIONAL WEATHER SERVICE NORTH PLATTE NE
100 PM CDT TUE JUN 27 2017

NOTE: "FAIR" INDICATES FEW OR NO CLOUDS BELOW 12,000 FEET WITH NO
SIGNIFICANT WEATHER AND/OR OBSTRUCTIONS TO VISIBILITY.

NOTE: STATIONS NOT REPORTING VARIABLES SUCH AS SKY/WEATHER OR
PRESSURE ARE PROVIDED BY RAWS AND APRS NETWORKS AND ARE NOT UNDER
NATIONAL WEATHER SERVICE QUALITY CONTROL.

...OBSERVATIONS IN AND NEAR THE EASTERN PANHANDLE OF NEBRASKA...

CITY           SKY/WX    TMP DP  RH WIND       PRES   REMARKS
PINE RIDGE     MOSUNNY   83  59  44 S22G29    29.73F
GORDON         FAIR      81  57  44 S13G20    29.75F
CHADRON        CLOUDY    86  55  34 SW14G24   29.71S
ALLIANCE       SUNNY     82  56  40 S23G29    29.79F
SIDNEY         SUNNY     82  57  42 S16G24    29.86F
CRESCENT LAKE    N/A     78  58  50 S13G22      N/A
$$

...OBSERVATIONS IN NORTHERN NEBRASKA AND FAR SOUTHERN SOUTH DAKOTA...

CITY           SKY/WX    TMP DP  RH WIND       PRES   REMARKS
WINNER         FAIR      85  57  38 S26G38    29.75F
VALENTINE      SUNNY     83  56  39 S24G38    29.77F
THEDFORD       CLOUDY    79  61  53 S22G29    29.85F
AINSWORTH      MOSUNNY   78  59  53 S25G33    29.83F
O`NEILL        SUNNY     79  55  44 S23       29.88F
ORD            SUNNY     78  57  48 SE18G28   29.88F
BROKEN BOW     CLOUDY    79  61  53 SE23G30   29.89F
VALENTINE NWR    N/A     78  59  51 S20G30      N/A
HALSEY           N/A     77  60  55 S13G24      N/A
BUTTE            N/A     76  56  49 SE23G36     N/A
CHAMBERS         N/A     81  56  41 SW7         N/A
EWING            N/A     78  58  50 S12G20      N/A
$$

...OBSERVATIONS IN SOUTHWEST NEBRASKA AND FAR NORTHEAST COLORADO...

CITY           SKY/WX    TMP DP  RH WIND       PRES   REMARKS
WRAY           FAIR      86  59  39 SE15G22   29.86F
IMPERIAL       SUNNY     80  58  46 SE17      29.85F
OGALLALA       SUNNY     80  59  47 S9G21     29.84F
NORTH PLATTE   CLOUDY    69  62  78 SE15      29.87F
MCCOOK         CLOUDY    73  64  73 SE12G22   29.89F
LEXINGTON      CLOUDY    75  63  65 S18G24    29.90F
STAPLETON        N/A     73  63  70 SE5G13      N/A
GOTHENBURG       N/A     72  60  65 S12         N/A
CALLAWAY         N/A     73  63  72 S21         N/A
$$

...OBSERVATIONS IN CENTRAL LINCOLN COUNTY AREA...

CITY           SKY/WX    TMP DP  RH WIND       PRES   REMARKS
N.P. AIRPORT   CLOUDY    69  62  78 SE15      29.87F
N.P. DOWNTOWN    N/A     68  62  79 SE3G12      N/A
N.P. SOUTHEAST   N/A     66  60  81 S8G16       N/A
N.P. HILLCREST   N/A     67  61  80 S15G23      N/A
$$

...SOME OBSERVATIONS FROM AROUND THE REGION...

CITY           SKY/WX    TMP DP  RH WIND       PRES   REMARKS
DENVER         PTSUNNY   92  36  14 VRB3      29.90F
LIMON          SUNNY     88  49  25 S15G22    29.93F
ASPEN          SUNNY     78  22  12 VRB5G18   30.16S
LARAMIE        SUNNY     85  30  13 W20G33    30.00S
CASPER         SUNNY     86  36  16 W13G20    29.86F
CHEYENNE       SUNNY     88  37  16 S17G25    29.92F
SCOTTSBLUFF    CLOUDY    88  54  31 S6        29.78R
GRAND ISLAND   MOSUNNY   77  63  61 SE22G30   29.94F
OMAHA          PTSUNNY   77  58  51 S21G26    30.00F
SIOUX FALLS    PTSUNNY   74  54  49 S21G29    29.93F
PIERRE         SUNNY     83  57  41 S24G41    29.67F
RAPID CITY     SUNNY     81  57  43 S14       29.66S
BISMARCK       MOSUNNY   82  55  39 S23G31    29.65F
KANSAS CITY    PTSUNNY   76  62  62 SE13      30.05F
HILL CITY      SUNNY     84  68  58 SE13G23   29.89F
WICHITA        MOSUNNY   85  71  63 S13G21    29.96F HX  90
DODGE CITY     SUNNY     89  57  33 S23G31    29.93F
OKLAHOMA CITY  PTSUNNY   88  66  48 S16       30.01F HX  90
DALLAS         MOSUNNY   90  70  51 S6        29.99F HX  95
AMARILLO       SUNNY     85  59  41 S17G26    30.06F
$$




USA.gov is the U.S. government's official web portal to all federal, state and local government web resources and services.